Location: Clason Point
(40.8136°N, 73.8618°W)
Time: 01:47:03
(UTC+00:00)

Cosmos 1378 - Pass Details

Date: 16 September 2019
Orbit: 493 x 502 km, 82.5° (Epoch: 14 October)

Event Time Altitude Azimuth Distance (km) Brightness Sun altitude
Rises 23:45:27 0° 354° (N) 2,609 7.0 -8.8°
Reaches altitude 10° 23:47:36 10° 356° (N) 1,720 6.0 -9.2°
Maximum altitude 23:51:21 72° 81° (E) 532 3.0 -9.9°
Drops below altitude 10° 23:55:05 10° 167° (SSE) 1,702 5.6 -10.6°
Sets 23:57:11 0° 169° (S) 2,580 6.5 -10.9°
